SCP
0 0 0 0 0 0 0 0 0 0 0 0 0 0 0 0 0 0 0 0 0 0 0 0 0 0 0 0 0 0 0 0 0 0 0 0 0 0 0 0 0 0 0 0 0 0 0 0 0
0 0 0 0 0 0 0 0 0 0 0 0 0 0 0 0 0 0 0 0 0 0 0 0 0 0 0 0 0 0 0 0 0 0 0 0 0 0 0 0 0 0 0 0 0 0 0 0 0
0 0 0 0 0 0 0 0 0 0 0 0 0 0 0 0 0 0 0 0 0 0 0 0 0 0 0 0 0 0 0 0 0 0 0 0 0 0 0 0 0 0 0 0 0 0 0 0 0
0 0 0 0 0 0 0 0 0 0 0 0 0 0 0 0 0 0 0 0 0 0 0 0 0 0 0 0 0 0 0 0 0 0 0 0 0 0 0 0 0 0 0 0 0 0 0 0 0
0 0 0 0 0 0 0 0 0 0 0 0 0 0 0 0 0 0 0 0 0 0 0 0 0 0 0 0 0 0 0 0 0 0 0 0 0 0 0 0 0 0 0 0 0 0 0 0 0
0 0 0 0 0 0 0 0 0 0 0 0 0 0 0 0 0 0 0 0 0 0 0 0 0 0 0 0 0 0 0 0 0 0 0 0 0 0 0 0 0 0 0 0 0 0 0 0 0
0 0 0 0 0 0 0 0 0 0 0 0 0 0 0 0 0 0 0 0 0 0 0 0 0 0 0 0 0 0 0 0 0 0 0 0 0 0 0 0 0 0 0 0 0 0 0 0 0
0 0 0 0 0 0 0 0 0 0 0 0 0 0 0 0 0 0 0 0 0 0 0 0 0 0 0 0 0 0 0 0 0 0 0 0 0 0 0 0 0 0 0 0 0 0 0 0 0
0 0 0 0 0 0 0 0 0 0 0 0 0 0 0 0 0 0 0 0 0 0 -0 -0 0 0 0 0 0 0 0 0 0 0 0 0 0 0 0 0 0 0 0 0 0 0 0 0 0
0 0 0 0 0 0 0 0 0 0 0 0 0 0 1 1 1 0 0 0 0 0 0 0 0 0 0 0 0 0 0 0 0 0 0 0 0 0 0 0 0 0 0 0 0 0 0 0 1
0 0 0 0 0 0 0 0 0 0 0 0 0 1 1 1 1 1 0 0 0 0 0 0 0 0 0 0 0 0 0 0 0 0 0 0 0 0 0 0 0 0 0 0 0 0 0 0 1
0 0 0 0 0 0 0 0 0 0 0 0 1 1 1 1 1 1 0 0 0 0 0 0 0 0 0 0 0 0 0 0 0 1 0 0 0 0 0 0 0 0 0 0 0 0 0 0 0
0 0 0 0 0 0 0 0 0 1 0 0 1 1 1 1 1 1 1 1 0 0 0 0 0 0 0 0 0 0 0 0 0 0 0 0 0 0 0 0 0 0 0 0 0 0 0 0 0
0 0 0 0 0 0 0 0 1 1 1 1 1 1 2 1 1 1 1 1 1 1 1 1 0 0 0 0 0 0 0 0 0 0 0 0 0 0 0 0 0 0 0 0 0 0 0 0 0
0 0 0 0 0 0 0 1 1 1 1 1 1 1 2 1 1 1 1 1 1 1 1 1 1 1 1 0 0 0 0 0 0 0 0 0 0 0 0 0 0 0 0 0 0 0 0 0 0
0 0 0 0 0 0 0 0 1 1 1 1 1 1 1 1 1 1 1 1 1 1 1 1 1 1 1 1 0 0 1 1 1 0 0 0 0 0 0 0 0 0 0 0 0 1 1 1 1
0 0 0 0 0 0 0 0 0 1 1 1 1 1 1 1 1 1 1 1 1 1 1 1 1 1 1 1 1 1 1 1 1 1 1 1 1 1 1 1 1 1 0 0 1 1 1 1 1
0 0 0 0 0 0 0 0 0 1 1 1 1 1 1 1 1 1 1 1 1 1 1 1 1 1 1 1 2 2 2 1 1 1 1 1 1 1 1 1 1 1 1 1 1 1 1 1 1
0 0 0 0 0 0 0 0 0 1 1 2 2 2 1 1 1 1 1 1 2 2 2 2 2 2 2 3 3 3 3 2 2 2 2 1 1 1 1 1 1 1 1 1 1 1 1 1 1
0 0 0 0 0 0 0 0 0 1 1 2 2 2 2 1 2 2 1 2 2 2 2 2 2 3 3 4 4 4 4 3 3 2 1 1 1 1 1 1 1 0 0 0 0 1 1 1 1
0 0 0 0 0 0 0 0 0 1 1 1 2 2 2 2 2 2 2 2 3 3 3 3 3 3 4 4 5 4 4 3 3 2 1 1 1 0 0 0 0 0 0 0 0 0 0 1 1
0 0 0 0 0 0 0 0 0 0 1 1 1 1 1 1 2 2 2 3 3 4 4 4 4 4 4 5 5 4 3 3 2 1 1 0 0 0 0 0 0 0 0 0 0 0 0 0 0
0 0 0 0 0 0 0 0 0 0 1 1 1 1 1 1 1 1 2 2 3 3 4 4 4 4 4 4 4 3 2 1 1 0 0 0 0 0 0 0 0 0 0 0 0 0 0 0 0
0 0 0 0 0 0 0 0 0 0 1 1 1 1 1 1 1 1 1 1 2 3 3 3 3 3 3 3 3 2 1 1 0 0 0 0 0 0 0 0 0 0 0 0 0 0 0 0 0
0 0 0 0 0 0 0 0 0 0 1 1 1 1 1 1 0 1 1 1 1 2 2 2 2 2 2 2 1 1 1 0 0 0 0 0 0 0 0 0 0 0 0 0 0 0 0 0 0
0 0 0 0 0 0 0 0 0 0 0 0 0 0 0 0 0 0 0 0 1 1 1 1 1 1 1 1 1 0 0 0 0 0 0 0 0 0 0 0 0 0 0 0 0 0 0 0 0
0 0 0 0 0 0 0 0 0 0 0 0 0 0 0 0 0 0 0 0 1 1 1 1 1 1 1 1 0 0 0 0 0 0 0 0 0 0 0 0 0 0 0 0 0 0 0 0 0
0 0 0 0 0 0 0 0 0 0 0 0 0 0 0 0 0 0 0 0 0 1 1 1 1 1 1 0 0 0 0 0 0 0 0 0 0 0 0 0 0 0 0 0 0 0 0 0 0
0 0 0 0 0 0 0 0 0 0 0 0 0 0 0 0 0 0 0 0 0 0 1 1 1 1 0 0 0 0 0 0 0 0 0 0 0 0 0 0 0 0 0 0 0 0 0 0 0
0 0 0 0 0 0 0 0 0 0 0 0 0 0 0 0 0 0 0 0 0 0 0 0 0 0 0 0 0 0 0 0 0 0 0 0 0 0 0 0 0 0 0 0 0 0 0 0 0
Wind_Speed
3 1 2 2 2 3 2 1 1 3 1 1 4 2 5 4 3 3 2 10 12 13 11 15 18 18 16 15 14 14 13 13 12 12 12 12 11 11 10 9 9 8 8 7 5 5 6 6 7
1 2 2 3 4 2 3 1 1 1 3 4 5 4 4 2 3 6 6 8 13 13 10 12 18 17 16 15 14 13 13 12 12 11 11 11 10 10 10 9 8 7 7 6 5 5 5 5 6
2 1 3 4 2 2 3 1 1 3 5 3 4 4 3 3 6 6 6 10 11 10 8 12 19 17 16 15 14 13 12 11 11 10 10 9 8 8 8 7 6 6 5 5 5 4 4 4 5
1 3 4 4 1 3 3 0 2 5 3 3 4 4 2 3 6 6 11 13 12 9 8 11 19 17 17 16 15 13 13 11 10 9 9 8 7 7 6 6 5 4 4 4 4 4 4 4 4
3 4 5 4 4 4 2 2 4 2 2 4 4 4 2 2 8 12 13 13 11 8 7 9 18 17 17 16 15 14 13 11 10 9 8 8 7 7 6 5 5 4 4 4 4 4 4 5 5
4 5 4 3 6 6 2 3 4 2 3 4 5 4 2 4 11 12 12 11 10 9 7 8 18 18 17 16 15 14 13 11 10 9 9 8 7 7 7 6 6 5 5 5 5 5 5 6 7
4 4 2 2 5 5 5 1 5 4 3 4 5 5 2 4 8 11 9 9 8 7 6 5 8 12 16 15 14 13 12 11 10 9 9 8 7 7 7 7 7 7 7 7 7 7 7 7 7
4 5 2 1 2 3 5 3 2 5 3 5 5 7 6 7 9 9 8 7 7 6 5 5 5 5 6 8 13 13 12 11 10 9 9 9 8 7 7 7 7 9 9 9 9 10 10 9 9
4 5 2 3 2 4 5 6 2 4 6 4 4 6 6 13 13 10 7 6 7 8 6 5 5 5 5 5 8 10 11 11 9 8 9 8 3 3 4 6 9 11 11 11 11 12 12 11 11
5 3 6 4 2 3 4 3 3 4 4 3 2 4 13 16 15 13 12 12 12 12 11 7 6 6 5 5 4 3 4 4 5 3 3 2 3 3 5 6 12 13 13 13 13 13 12 10 5
3 5 4 4 4 3 4 5 2 6 5 8 8 12 19 16 14 13 13 12 12 11 11 9 8 6 6 4 4 3 3 3 4 4 3 2 2 2 4 3 6 7 9 6 7 7 5 5 5
2 4 4 5 4 3 4 4 2 7 9 7 11 18 22 20 18 17 15 13 10 9 12 9 9 8 7 5 4 4 3 3 3 4 4 3 2 3 4 3 4 4 4 5 5 4 6 7 8
3 5 5 6 8 5 4 5 4 6 4 6 13 16 20 19 17 13 12 11 10 11 11 10 9 9 7 6 4 4 4 4 4 4 5 5 4 5 5 4 4 6 5 5 5 5 6 6 7
3 5 6 8 8 4 3 3 2 6 3 9 15 17 17 17 16 13 12 11 11 12 12 10 10 10 8 7 5 4 4 4 4 5 6 7 6 6 5 5 5 5 5 5 5 6 5 5 5
2 4 7 5 3 3 0 3 4 4 7 9 13 14 14 12 12 14 14 13 13 12 11 11 11 10 9 9 8 5 5 5 5 6 7 7 7 7 6 5 5 6 5 5 4 5 4 5 5
3 3 3 7 3 3 1 5 7 5 10 10 10 11 12 11 12 12 13 13 12 11 11 12 11 11 10 9 8 6 6 6 6 6 6 8 9 8 6 5 6 6 4 4 4 4 4 5 5
5 3 3 7 4 3 0 6 7 6 11 12 12 12 12 10 11 11 11 13 12 11 11 12 11 12 12 10 8 7 6 7 6 5 5 6 7 7 5 5 5 4 4 4 5 4 4 5 6
2 2 4 6 7 5 4 5 7 6 12 13 12 10 9 11 12 5 4 6 7 8 8 9 9 9 10 8 6 5 5 4 4 4 4 5 4 4 4 3 4 3 3 4 4 5 5 5 6
1 2 5 6 5 3 4 6 9 3 3 2 2 3 4 5 4 4 4 3 3 5 6 7 8 8 7 5 6 5 4 3 3 3 4 4 3 2 2 0 2 2 3 5 5 5 6 5 4
2 2 4 6 5 4 3 5 7 7 4 4 5 5 4 4 4 4 3 2 3 3 4 5 6 6 7 6 5 3 3 2 2 2 3 2 3 3 2 1 2 3 3 5 6 5 4 4 4
1 1 2 4 5 6 4 5 6 6 6 9 9 5 4 4 3 3 3 2 1 1 3 3 4 5 6 5 3 3 2 2 2 1 1 1 3 2 2 2 2 3 3 5 6 7 8 7 4
1 1 1 2 3 4 3 3 4 6 6 7 8 7 7 6 4 3 3 3 2 1 2 3 3 2 2 4 5 6 4 3 3 2 1 0 1 1 1 1 2 3 3 5 6 6 6 8 7
2 2 1 1 2 1 3 1 6 4 5 6 6 7 7 6 5 4 3 3 2 1 1 4 5 4 3 1 3 4 2 2 2 2 2 1 1 1 1 1 2 2 2 3 4 5 5 5 6
1 5 6 5 4 1 2 1 6 4 3 5 6 6 6 5 4 3 3 2 2 2 1 2 5 5 6 6 4 4 5 5 4 3 2 1 1 0 1 2 2 2 2 3 4 4 5 4 5
6 6 5 6 4 5 2 2 9 5 4 4 6 7 6 5 4 4 4 3 2 2 2 2 3 4 5 6 6 5 5 5 5 4 3 2 1 0 2 2 2 2 3 4 4 4 5 5 5
2 6 5 3 4 5 4 6 7 3 3 4 6 7 7 6 5 5 5 4 4 4 4 4 4 4 5 5 5 5 5 4 3 3 3 2 1 0 1 3 3 3 4 4 5 4 4 4 4
4 3 5 6 1 3 6 7 9 3 6 7 8 8 9 8 7 7 6 5 6 6 6 5 5 4 4 5 6 6 5 5 4 3 2 1 1 1 2 3 3 4 4 4 4 3 4 4 3
2 6 5 4 2 4 7 5 6 6 9 10 10 10 10 8 7 7 6 6 6 6 5 5 4 5 4 5 6 5 5 4 4 3 3 2 2 2 3 3 4 4 4 4 3 3 4 4 3
3 3 4 4 4 5 5 9 8 9 9 9 10 9 9 9 8 7 6 5 5 5 4 3 3 2 3 4 5 6 5 4 4 3 3 2 2 3 3 3 4 4 4 4 3 4 4 3 4
4 6 7 4 4 4 3 12 8 7 8 7 9 9 8 8 7 6 6 5 4 3 2 1 1 2 2 2 3 5 5 5 4 4 3 3 4 5 5 5 5 5 5 5 5 5 4 4 5
Wind_Direction
254 194 151 122 65 38 341 296 242 310 29 10 123 109 133 139 175 191 133 145 142 147 155 159 157 156 154 150 148 144 142 138 135 131 130 132 135 138 138 136 136 138 140 140 139 141 140 139 141
239 162 125 80 74 25 312 257 234 217 154 115 82 72 70 82 70 114 140 150 146 148 152 157 159 159 158 157 155 151 148 145 142 139 137 137 140 144 147 148 148 150 151 150 151 154 158 162 164
232 153 95 75 99 196 271 250 214 123 159 124 91 80 108 164 143 149 158 144 138 143 150 162 161 162 162 162 162 159 155 154 152 147 145 146 147 148 151 155 158 162 167 174 179 179 177 181 190
116 50 54 61 299 245 248 283 142 118 134 87 103 92 83 149 154 149 145 145 141 145 150 168 163 165 166 167 169 168 166 165 163 157 156 158 160 161 163 167 175 185 197 208 211 212 210 208 212
60 72 46 10 298 274 244 154 146 135 114 103 117 114 63 73 120 135 145 150 149 147 153 173 167 170 172 173 174 176 175 175 174 171 171 173 176 180 184 187 197 208 214 223 236 238 238 240 237
51 60 63 332 312 316 316 151 147 130 112 121 129 121 118 131 138 149 152 153 153 154 158 173 174 175 177 178 179 181 182 183 184 185 186 188 195 203 204 207 213 221 224 226 233 242 248 251 250
97 90 129 286 309 332 352 119 146 137 148 168 144 117 126 165 163 152 148 142 144 153 158 172 175 178 183 185 186 188 189 189 189 191 194 198 207 220 228 227 230 232 233 235 242 248 254 262 261
113 98 104 286 294 318 341 355 142 143 168 139 136 154 185 186 157 142 132 135 145 157 166 172 167 167 176 187 195 194 196 197 199 200 203 207 213 225 236 236 242 247 246 244 248 254 256 258 260
77 80 175 227 228 296 334 353 346 135 124 152 179 179 180 148 146 142 138 148 166 178 178 176 169 163 162 174 197 196 198 202 205 209 212 210 213 230 248 250 250 253 255 256 258 261 262 260 258
85 135 219 230 226 277 307 307 275 134 142 166 119 116 135 149 157 163 170 176 183 189 189 182 174 165 160 174 174 173 181 187 194 195 213 197 189 219 240 258 260 262 262 263 264 262 264 265 257
133 189 234 253 247 260 288 295 270 152 204 207 185 159 151 164 169 178 183 185 188 189 192 188 180 168 167 169 158 166 172 179 190 195 195 191 205 229 245 256 270 274 275 270 268 272 263 254 252
214 239 231 257 255 269 256 273 268 196 225 206 171 162 162 175 181 186 187 188 183 184 194 187 181 176 178 173 175 177 179 185 192 196 194 196 217 234 239 244 256 261 257 255 253 250 253 257 258
233 266 261 260 283 262 250 242 238 247 254 136 144 161 174 184 188 191 191 189 184 190 192 186 183 184 183 180 182 186 193 196 199 199 204 206 219 236 240 245 252 258 255 250 251 250 251 257 264
249 262 284 284 282 272 257 279 195 256 149 143 158 175 184 190 190 189 191 192 193 195 194 186 187 189 184 186 188 196 201 203 203 214 219 216 222 230 232 241 247 253 252 248 245 246 250 256 261
273 295 310 295 283 277 185 319 243 234 148 163 178 184 189 194 194 199 197 196 196 197 193 189 191 189 188 191 194 197 203 204 212 223 226 225 225 229 230 237 246 248 247 248 246 249 248 257 259
25 33 337 302 298 301 169 268 267 177 163 183 192 194 199 204 205 205 202 201 198 194 192 194 195 190 193 196 195 199 206 209 218 222 225 226 225 224 224 231 243 242 235 235 240 244 248 253 255
17 10 320 309 309 345 156 255 276 195 180 191 197 202 208 214 221 216 209 205 201 198 195 196 196 191 194 196 197 200 202 205 209 208 214 223 226 222 215 227 241 245 240 240 243 245 238 255 260
287 318 317 301 304 338 334 294 305 223 198 200 201 206 213 223 232 238 240 221 211 206 204 203 201 198 192 191 192 194 195 199 198 198 206 209 211 209 201 219 243 250 255 260 255 259 255 252 263
253 297 299 285 301 335 341 342 339 330 225 253 273 283 287 281 314 346 329 292 239 217 210 206 201 201 189 182 183 184 189 189 195 191 182 174 163 143 141 214 294 290 273 275 278 276 271 260 246
235 305 310 306 334 12 360 7 0 28 31 35 28 11 355 339 342 348 339 318 264 233 219 213 209 203 197 195 185 173 163 160 161 148 141 133 107 78 62 12 322 305 292 287 277 264 264 253 221
163 172 287 298 328 4 14 357 7 359 23 38 33 19 356 336 328 342 341 334 300 229 215 202 203 205 205 192 166 138 120 111 127 142 134 69 69 63 42 354 322 306 291 287 284 273 266 270 254
314 252 285 311 6 327 7 305 332 340 356 25 21 15 4 353 344 345 353 351 355 69 125 132 140 176 206 193 181 173 175 179 183 166 170 51 35 25 11 349 335 317 304 295 292 284 273 273 275
273 3 49 64 152 334 355 252 289 338 345 348 360 3 355 351 351 351 357 354 347 358 111 131 134 147 141 185 191 168 152 151 135 139 165 191 270 297 4 15 6 351 334 325 318 310 295 280 278
28 56 40 41 76 247 262 238 273 252 262 305 327 338 339 336 339 341 345 360 347 340 343 147 156 163 159 159 172 175 167 158 156 169 182 203 227 281 20 20 7 350 343 338 330 318 309 296 284
61 66 14 353 4 254 278 233 246 225 213 247 279 292 299 302 306 310 318 323 314 305 289 246 193 179 174 166 164 171 164 161 169 170 178 177 161 44 4 6 348 340 336 335 333 323 319 310 302
106 129 155 233 247 284 309 249 257 240 232 242 253 263 271 269 267 269 272 279 283 279 272 251 222 204 186 173 159 146 147 151 156 164 165 159 148 348 349 349 340 333 336 338 337 328 328 322 315
134 152 159 140 211 280 281 295 300 263 270 261 258 259 258 258 263 266 268 267 268 272 270 260 236 217 196 173 152 147 158 160 154 157 149 126 80 32 18 10 2 352 347 343 339 336 340 343 358
68 139 102 125 188 269 288 278 254 263 257 258 255 255 260 263 266 268 267 262 260 260 266 267 249 220 194 174 161 158 170 164 152 142 113 82 61 53 39 29 17 3 350 344 343 336 341 357 9
98 92 104 117 159 176 266 270 230 231 241 250 259 260 263 268 272 276 278 272 263 259 254 247 239 223 191 175 165 158 160 152 140 122 96 73 55 48 46 32 20 4 349 343 348 345 350 16 32
191 178 153 165 226 190 213 269 261 245 262 262 270 275 273 271 273 278 282 283 274 262 265 271 240 225 207 165 151 150 147 141 127 106 87 68 64 60 55 48 38 21 7 1 1 358 14 36 42